Location: Unspecified
(40.7945°N, 111.1337°W)
Time: 02:06:23
(UTC-06:00)

Resurs 1-4 Rocket - Visible Passes

Search period start: 22 August 2018 00:00
Search period end: 01 September 2018 00:00
Orbit: 799 x 815 km, 98.5° (Epoch: 20 August)

Date Brightness Start Highest point End Pass type
(mag) Time Alt. Az. Time Alt. Az. Time Alt. Az.
22 Aug 3.2 02:56:53 10° NNE 03:00:43 40° ENE 03:00:43 40° ENE visible
22 Aug 3.5 04:37:30 10° NNW 04:41:26 22° WNW 04:41:47 22° WNW visible
23 Aug 3.9 02:32:44 10° NE 02:35:45 24° ENE 02:35:45 24° ENE visible
23 Aug 2.9 04:12:21 10° N 04:16:49 35° WNW 04:16:49 35° WNW visible
24 Aug 4.5 02:09:07 10° NE 02:10:46 15° ENE 02:10:46 15° ENE visible
24 Aug 2.5 03:47:29 10° N 03:51:50 52° NW 03:51:50 52° NW visible
25 Aug 2.7 03:22:49 10° NNE 03:26:52 54° NNE 03:26:52 54° NNE visible
25 Aug 4.0 05:04:50 10° NNW 05:07:11 13° WNW 05:07:57 13° WNW visible
26 Aug 3.3 02:58:23 10° NNE 03:01:54 37° NE 03:01:54 37° NE visible
26 Aug 3.5 04:39:04 10° NNW 04:42:56 21° WNW 04:42:58 21° WNW visible
27 Aug 4.0 02:34:12 10° NE 02:36:55 24° ENE 02:36:55 24° ENE visible
27 Aug 3.0 04:13:53 10° N 04:18:00 33° NW 04:18:00 33° NW visible
28 Aug 4.6 02:10:32 10° NE 02:11:57 14° ENE 02:11:57 14° ENE visible
28 Aug 2.7 03:49:00 10° N 03:53:01 47° NNW 03:53:01 47° NNW visible
29 Aug 2.9 03:24:20 10° NNE 03:28:03 47° NNE 03:28:03 47° NNE visible
29 Aug 4.0 05:06:29 10° NW 05:08:40 13° WNW 05:09:07 13° WNW visible
30 Aug 3.5 02:59:52 10° NNE 03:03:04 34° NE 03:03:04 34° NE visible
30 Aug 3.6 04:40:37 10° NNW 04:44:08 21° WNW 04:44:08 21° WNW visible
31 Aug 4.1 02:35:40 10° NE 02:38:05 22° NE 02:38:05 22° NE visible
31 Aug 3.2 04:15:25 10° N 04:19:10 31° NW 04:19:10 31° NW visible
